Location: Coed Ely
(51.5661°N, 3.4150°W)
Time: 01:00:39
(UTC+00:00)

Cosmos 2263 Rocket - Pass Details

Date: 28 January 2021
Orbit: 825 x 847 km, 71.0° (Epoch: 28 February)

Event Time Altitude Azimuth Distance (km) Brightness Sun altitude
Rises 18:29:49 0° 267° (W) 3,402 7.2 -14.5°
Reaches altitude 10° 18:33:04 10° 286° (WNW) 2,466 5.7 -15.0°
Maximum altitude 18:36:56 18° 329° (NNW) 1,935 4.3 -15.6°
Drops below altitude 10° 18:40:48 10° 13° (NNE) 2,462 4.4 -16.2°
Enters shadow 18:42:30 - 24° (NNE) 2,921 4.7 -16.4°
